Orbital elements:
2004 KM19
Epoch 2011 Aug. 27.0 TT = JDT 2455800.5 MPC
M 10.65671 (2000.0) P Q
n 0.00300452 Peri. 305.90173 -0.64623097 +0.76260556
a 47.5648832 Node 283.81460 -0.69033499 -0.60014552
e 0.2893447 Incl. 1.68807 -0.32530469 -0.24136719
P 328 H 8.2 G 0.15 U 3